Regional Weather Roundup
Issued by NWS

Home | Current Version | Previous Version | Graphics & Text | Print | Product List | Glossary On
Versions: 1 2 3 4 5 6 7 8 9 10 11 12 13 14 15 16 17 18 19 20 21 22 23 24 25 26 27 28 29 30 31 32 33 34 35 36 37 38 39 40 41 42 43 44 45 46 47 48 49 50
000
ASUS45 KBOU 201307
RWRCO

WEATHER ROUNDUP FOR COLORADO
NATIONAL WEATHER SERVICE DENVER/BOULDER CO
700 AM MDT SUN AUG 20 2017

NOTE: "FAIR" INDICATES FEW OR NO CLOUDS BELOW 12000 FEET WITH NO
SIGNIFICANT WEATHER AND/OR OBSTRUCTIONS TO VISIBILITY.

COZ001>005-013-030-031-201400-
...NORTHWEST COLORADO...

CITY           SKY/WX    TMP DP  RH WIND       PRES   REMARKS
CRAIG          FAIR      44  35  70 SW3       30.21R
HAYDEN         FAIR      54  36  50 E12       30.24R
MEEKER         FAIR      47  37  68 NE6       30.22R
RABBIT EARS PA FAIR      52  32  46 W10       30.50S
STEAMBOAT SPGS FAIR      46  36  68 CALM      30.26R
WALDEN         FAIR      39  30  70 SE6       30.36R
$$

COZ006>008-011-201400-
...WEST CENTRAL VALLEYS...

CITY           SKY/WX    TMP DP  RH WIND       PRES   REMARKS
GRAND JUNCTION FAIR      61  39  44 SE13      30.09R
MONTROSE       FAIR      54  40  59 S5        30.19R
EAGLE          FAIR      47  32  56 CALM      30.30R
RIFLE          FAIR      53  37  54 SE3       30.18R
DELTA          FAIR      57  39  50 CALM      30.16R
NUCLA          FAIR      57  32  38 E5        30.21R
$$

COZ017>023-064>068-201400-
...SOUTHWEST COLORADO...

CITY           SKY/WX    TMP DP  RH WIND       PRES   REMARKS
DURANGO        FAIR      53  37  54 CALM      30.23R
CORTEZ         FAIR      51  40  65 CALM      30.16R
PAGOSA SPRINGS FAIR      53  37  55 CALM      30.32R
TELLURIDE      FAIR      52  32  46 SE6       30.43R
WOLF CREEK PAS NOT AVBL
$$

COZ009-010-012-014-032>034-037-058>063-201400-
...CENTRAL COLORADO...

CITY           SKY/WX    TMP DP  RH WIND       PRES   REMARKS
ASPEN          FAIR      45  35  68 S7        30.31S
BUENA VISTA    FAIR      49  34  55 NW3       30.35R
COPPER MTN     FAIR      54  27  35 W3        30.62R
BERTHOUD PASS  FAIR      43  37  81 W14       30.64S
COTTONWOOD PAS FAIR      59  23  25 CALM      30.46R
GUNNISON       FAIR      39  33  79 CALM      30.38R
KREMMLING      FAIR      43  34  70 CALM      30.35R
LEADVILLE      FAIR      37  30  75 CALM      30.46R
MONARCH PASS   FAIR      48  25  40 SW6       30.72R
SALIDA         FAIR      55  35  47 NW9       30.39R
SUNLIGHT       FAIR      52  25  35 CALM      30.54R
WILKERSON PASS FAIR      52  27  37 CALM      30.59R
$$

COZ069>075-201400-
...SAN LUIS VALLEY/SANGRE DE CRISTO MOUNTAINS...

CITY           SKY/WX    TMP DP  RH WIND       PRES   REMARKS
ALAMOSA        FAIR      48  42  80 NW6       30.30R
DEL NORTE      FAIR      52  35  52 W10       30.35R
LA VETA PASS   NOT AVBL
SAGUACHE       FAIR      50  34  53 N10       30.35R
$$

COZ035-036-038>040-201400-
...NORTHERN COLORADO FRONT RANGE...

CITY           SKY/WX    TMP DP  RH WIND       PRES   REMARKS
DENVER INTL AP MOCLDY    64  40  41 SW12      30.08R
DMNS CITY PARK   N/A     63  40  42 SW3G13    30.10R
AURORA         PTCLDY    62  41  46 S8        30.11R
FRONT RANGE AP FAIR      66  41  39 SW10      30.10R
ERIE MUNI ARPT FAIR      57  44  62 CALM      30.12R
BOULDER MUN AP FAIR      63  41  45 W3        30.07S
CENTENNIAL     FAIR      60  41  49 S3        30.12R
BROOMFIELD     MOCLDY    68  37  32 CALM      30.11R
FORT COLLINS   FAIR      63  47  55 NE6       30.07R
LONGMONT       FAIR      61  47  60 SW5       30.08R
$$

COZ041-046-047-076>085-087-088-201400-
...PIKES PEAK/PALMER DIVIDE AND SOUTHERN FOOTHILLS...

CITY           SKY/WX    TMP DP  RH WIND       PRES   REMARKS
COLO. SPRINGS  MOCLDY    64  41  42 N10       30.15R
A. F. ACADEMY  FAIR      53  40  62 N8        30.17R
SCHRIEVER AFB  FAIR      68  36  30 NW9       30.14R
CHEYENNE MTN   FAIR      69  38  32 W8        30.15R
ELLICOTT       NOT AVBL
FALCON         FAIR      63  36  36 W12       30.20S
FORT CARSON    FAIR      61  43  52 NW14      30.11R
LIMON          FAIR      56  49  77 NW6       30.08R
MONUMENT HILL  FAIR      55  37  50 W9        30.23R
CANON CITY     CLEAR     70  41  35 W14G23    30.09R
WALSENBURG     FAIR      73  39  29 W14       30.13R
TRINIDAD       FAIR      60  46  59 W10       30.12R
$$

COZ042>045-048>051-090-091-201400-
...NORTHEAST COLORADO...

CITY           SKY/WX    TMP DP  RH WIND       PRES   REMARKS
GREELEY ARPT   FAIR      56  50  80 CALM      30.05R
AKRON          FAIR      62  44  51 W13       30.01R
BURLINGTON     FAIR      61  54  77 W8        29.99R
WRAY           NOT AVBL
YUMA           FAIR      61  37  41 W8        29.98R
STERLING       FAIR      52  50  93 CALM      29.99R
HOLYOKE        FAIR      61  55  82 W7        29.97R
FORT MORGAN    FAIR      58  46  65 NW7       30.02R
$$

COZ086-089-092>099-201400-
...SOUTHEAST COLORADO...

CITY           SKY/WX    TMP DP  RH WIND       PRES   REMARKS
PUEBLO         FAIR      59  47  64 CALM      30.04R
LA JUNTA       FAIR      58  52  80 W7        30.00R
LAMAR          FAIR      57  54  89 CALM      29.96R
SPRINGFIELD      N/A     61  56  83 SW8       30.01R
$$



USA.gov is the U.S. government's official web portal to all federal, state and local government web resources and services.